• In Russia
  • List of Countries
  • For 7 days
  • Water Temperature
  • Satellite Maps
  • Weather Map
  • Weather Widgets
  • user-avatar
    Login

    Hourly Weather Tirana

    Today, 29 April, Saturday

    Time Temperature Precipitation Wind Pressure Humidity
    00:00 +16°C° 0.2 mm 3 mps 752 mmHg 58%
    01:00 +16°C° 0 mm 3 mps 751 mmHg 59%
    02:00 +17°C° 0.1 mm 3 mps 751 mmHg 57%
    03:00 +17°C° 0.1 mm 3 mps 751 mmHg 55%
    04:00 +17°C° 0.1 mm 4 mps 750 mmHg 53%
    05:00 +18°C° 0 mm 3 mps 750 mmHg 51%
    06:00 +20°C° 0 mm 3 mps 750 mmHg 50%
    07:00 +21°C° 0 mm 3 mps 750 mmHg 43%
    08:00 +23°C° 0 mm 2 mps 750 mmHg 39%
    09:00 +24°C° 0 mm 2 mps 750 mmHg 34%
    10:00 +26°C° 0 mm 2 mps 750 mmHg 30%
    11:00 +25°C° 0 mm 2 mps 750 mmHg 32%
    12:00 +25°C° 0 mm 2 mps 750 mmHg 33%
    13:00 +25°C° 0 mm 3 mps 750 mmHg 32%
    14:00 +24°C° 0 mm 3 mps 750 mmHg 36%
    15:00 +24°C° 0 mm 3 mps 750 mmHg 39%
    16:00 +24°C° 0 mm 3 mps 750 mmHg 43%
    17:00 +20°C° 0 mm 3 mps 750 mmHg 52%
    18:00 +18°C° 0 mm 3 mps 750 mmHg 62%
    19:00 +16°C° 0 mm 3 mps 750 mmHg 71%
    20:00 +14°C° 0 mm 4 mps 750 mmHg 70%
    21:00 +14°C° 0 mm 4 mps 750 mmHg 69%
    22:00 +13°C° 0 mm 4 mps 750 mmHg 69%
    23:00 +13°C° 0 mm 4 mps 750 mmHg 68%

    Tomorrow, 30 April, Sunday

    Time Temperature Precipitation Wind Pressure Humidity
    00:00 +13°C° 0 mm 4 mps 750 mmHg 67%
    01:00 +13°C° 0 mm 5 mps 750 mmHg 66%
    02:00 +13°C° 0 mm 5 mps 750 mmHg 67%
    03:00 +12°C° 0 mm 5 mps 750 mmHg 69%
    04:00 +12°C° 0 mm 5 mps 750 mmHg 70%
    05:00 +14°C° 0 mm 4 mps 750 mmHg 66%
    06:00 +17°C° 0 mm 4 mps 750 mmHg 62%
    07:00 +19°C° 0 mm 4 mps 750 mmHg 58%
    08:00 +21°C° 0 mm 4 mps 750 mmHg 52%
    09:00 +23°C° 0 mm 4 mps 750 mmHg 47%
    10:00 +26°C° 0 mm 4 mps 750 mmHg 42%
    11:00 +26°C° 0.1 mm 5 mps 750 mmHg 43%
    12:00 +26°C° 0.1 mm 6 mps 750 mmHg 45%
    13:00 +26°C° 0.1 mm 6 mps 750 mmHg 47%
    14:00 +24°C° 0.4 mm 6 mps 749 mmHg 52%
    15:00 +23°C° 0.4 mm 6 mps 749 mmHg 56%
    16:00 +22°C° 0.4 mm 6 mps 749 mmHg 61%
    17:00 +20°C° 0.3 mm 5 mps 749 mmHg 70%
    18:00 +19°C° 0.3 mm 5 mps 749 mmHg 78%
    19:00 +17°C° 0.3 mm 4 mps 750 mmHg 86%
    20:00 +15°C° 0.2 mm 4 mps 750 mmHg 88%
    21:00 +15°C° 0.2 mm 4 mps 750 mmHg 89%
    22:00 +16°C° 0.2 mm 3 mps 751 mmHg 90%
    23:00 +14°C° 0.1 mm 3 mps 751 mmHg 90%

    Day after tomorrow, 1 May, Monday

    Time Temperature Precipitation Wind Pressure Humidity
    00:00 +14°C° 0.1 mm 3 mps 751 mmHg 90%
    01:00 +13°C° 0.1 mm 3 mps 751 mmHg 91%
    02:00 +13°C° 0 mm 3 mps 751 mmHg 91%
    03:00 +13°C° 0 mm 3 mps 751 mmHg 91%
    04:00 +12°C° 0 mm 3 mps 751 mmHg 91%
    05:00 +14°C° 0 mm 3 mps 751 mmHg 86%
    06:00 +17°C° 0 mm 2 mps 751 mmHg 81%
    07:00 +18°C° 0 mm 2 mps 751 mmHg 76%
    08:00 +20°C° 0 mm 2 mps 752 mmHg 67%
    09:00 +22°C° 0 mm 3 mps 752 mmHg 59%
    10:00 +25°C° 0 mm 3 mps 752 mmHg 51%
    11:00 +25°C° 0.1 mm 3 mps 752 mmHg 53%
    12:00 +25°C° 0.1 mm 4 mps 752 mmHg 54%
    13:00 +25°C° 0.1 mm 5 mps 752 mmHg 55%
    14:00 +25°C° 0.1 mm 4 mps 752 mmHg 58%
    15:00 +23°C° 0.1 mm 4 mps 751 mmHg 61%
    16:00 +22°C° 0.1 mm 4 mps 751 mmHg 64%
    17:00 +20°C° 0 mm 3 mps 752 mmHg 73%
    18:00 +18°C° 0 mm 2 mps 752 mmHg 82%
    19:00 +16°C° 0 mm 2 mps 752 mmHg 92%
    20:00 +15°C° 0 mm 1 mps 753 mmHg 92%
    21:00 +15°C° 0 mm 1 mps 753 mmHg 92%
    22:00 +13°C° 0 mm 0 mps 753 mmHg 92%
    23:00 +13°C° 0 mm 0 mps 753 mmHg 92%

    2 May, Tuesday

    Time Temperature Precipitation Wind Pressure Humidity
    00:00 +14°C° 0 mm 1 mps 753 mmHg 92%
    01:00 +14°C° 0 mm 1 mps 753 mmHg 92%
    02:00 +13°C° 0 mm 1 mps 753 mmHg 92%
    03:00 +13°C° 0 mm 1 mps 753 mmHg 92%
    04:00 +13°C° 0 mm 1 mps 753 mmHg 92%
    05:00 +15°C° 0 mm 1 mps 753 mmHg 84%
    06:00 +19°C° 0 mm 1 mps 753 mmHg 76%
    07:00 +21°C° 0 mm 1 mps 754 mmHg 68%
    08:00 +23°C° 0 mm 1 mps 754 mmHg 61%
    09:00 +25°C° 0 mm 2 mps 754 mmHg 55%
    10:00 +27°C° 0 mm 2 mps 753 mmHg 48%
    11:00 +27°C° 0 mm 3 mps 753 mmHg 48%
    12:00 +27°C° 0 mm 4 mps 753 mmHg 47%
    13:00 +27°C° 0 mm 4 mps 753 mmHg 46%
    14:00 +26°C° 0 mm 4 mps 753 mmHg 49%
    15:00 +26°C° 0 mm 4 mps 753 mmHg 51%
    16:00 +25°C° 0 mm 4 mps 753 mmHg 53%
    17:00 +21°C° 0 mm 3 mps 753 mmHg 62%
    18:00 +19°C° 0 mm 3 mps 753 mmHg 71%
    19:00 +16°C° 0 mm 2 mps 754 mmHg 80%
    20:00 +16°C° 0 mm 2 mps 754 mmHg 81%
    21:00 +15°C° 0 mm 2 mps 754 mmHg 83%
    22:00 +15°C° 0 mm 1 mps 754 mmHg 84%
    23:00 +15°C° 0 mm 2 mps 754 mmHg 85%

    3 May, Wednesday

    Time Temperature Precipitation Wind Pressure Humidity
    00:00 +14°C° 0 mm 2 mps 754 mmHg 86%
    01:00 +14°C° 0 mm 2 mps 754 mmHg 86%
    02:00 +14°C° 0 mm 2 mps 754 mmHg 87%
    03:00 +14°C° 0 mm 2 mps 754 mmHg 87%
    04:00 +13°C° 0 mm 2 mps 754 mmHg 88%
    05:00 +16°C° 0 mm 2 mps 754 mmHg 80%
    06:00 +19°C° 0 mm 1 mps 754 mmHg 71%
    07:00 +22°C° 0 mm 1 mps 754 mmHg 63%
    08:00 +23°C° 0 mm 2 mps 754 mmHg 58%
    09:00 +25°C° 0 mm 2 mps 754 mmHg 52%
    10:00 +27°C° 0 mm 2 mps 754 mmHg 47%
    11:00 +27°C° 0.1 mm 3 mps 754 mmHg 47%
    12:00 +27°C° 0.1 mm 3 mps 753 mmHg 47%
    13:00 +27°C° 0.1 mm 4 mps 753 mmHg 46%
    14:00 +26°C° 0.1 mm 4 mps 753 mmHg 48%
    15:00 +26°C° 0.1 mm 3 mps 753 mmHg 50%
    16:00 +25°C° 0.1 mm 3 mps 753 mmHg 51%
    17:00 +21°C° 0 mm 2 mps 753 mmHg 61%
    18:00 +19°C° 0 mm 2 mps 753 mmHg 71%
    19:00 +16°C° 0 mm 2 mps 753 mmHg 81%
    20:00 +15°C° 0 mm 1 mps 753 mmHg 82%
    21:00 +15°C° 0 mm 1 mps 753 mmHg 84%
    22:00 +13°C° 0 mm 0 mps 754 mmHg 85%
    23:00 +13°C° 0 mm 0 mps 753 mmHg 86%

    4 May, Thursday

    Time Temperature Precipitation Wind Pressure Humidity
    00:00 +13°C° 0 mm 0 mps 753 mmHg 86%
    01:00 +12°C° 0 mm 0 mps 753 mmHg 87%
    02:00 +12°C° 0 mm 0 mps 753 mmHg 87%
    03:00 +12°C° 0 mm 0 mps 753 mmHg 87%
    04:00 +11°C° 0 mm 0 mps 753 mmHg 87%
    05:00 +14°C° 0 mm 0 mps 753 mmHg 78%
    06:00 +17°C° 0 mm 0 mps 753 mmHg 69%
    07:00 +19°C° 0 mm 0 mps 753 mmHg 60%
    08:00 +23°C° 0 mm 1 mps 753 mmHg 54%
    09:00 +24°C° 0 mm 1 mps 753 mmHg 48%
    10:00 +25°C° 0 mm 1 mps 753 mmHg 42%
    11:00 +25°C° 0 mm 2 mps 753 mmHg 42%
    12:00 +26°C° 0 mm 2 mps 753 mmHg 42%
    13:00 +26°C° 0 mm 3 mps 752 mmHg 42%
    14:00 +25°C° 0 mm 3 mps 752 mmHg 45%
    15:00 +24°C° 0 mm 2 mps 752 mmHg 49%
    16:00 +23°C° 0 mm 2 mps 752 mmHg 52%
    17:00 +20°C° 0 mm 2 mps 753 mmHg 62%
    18:00 +19°C° 0 mm 1 mps 753 mmHg 72%
    19:00 +15°C° 0 mm 1 mps 753 mmHg 82%
    20:00 +15°C° 0 mm 1 mps 753 mmHg 84%
    21:00 +14°C° 0 mm 1 mps 753 mmHg 85%
    22:00 +13°C° 0 mm 2 mps 754 mmHg 87%
    23:00 +13°C° 0 mm 2 mps 754 mmHg 87%
    Show more